1495753200.43,47376,13.81,73838.3,-3.69,-4.73,-4.61,0,*5E
1495753201.65,47377,13.88,73840.3,-3.71,-4.65,-4.65,0,*55
1495753202.92,47378,13.88,73840.8,-3.73,-4.77,-4.69,0,*57
1495753204.12,47379,13.81,73836.8,-3.69,-4.65,-4.65,0,*52
1495753205.36,47380,13.88,73838.5,-3.71,-4.65,-4.73,0,*5A
1495753206.61,47381,13.88,73840.3,-3.71,-4.65,-4.73,0,*5B
1495753207.88,47382,13.88,73840.8,-3.71,-4.73,-4.73,0,*5F
1495753209.14,47383,13.88,73840.0,-3.73,-4.69,-4.77,0,*53
1495753210.41,47384,13.88,73838.3,-3.71,-4.73,-4.73,0,*59
1495753211.65,47385,13.81,73838.5,-3.69,-4.85,-4.85,0,*51
1495753212.91,47386,13.81,73838.0,-3.71,-4.77,-4.77,0,*5B
1495753214.18,47387,13.81,73834.5,-3.71,-4.85,-4.85,0,*5A
1495753215.44,47388,13.81,73838.3,-3.71,-4.77,-4.77,0,*55
1495753216.71,47389,13.81,73832.5,-3.71,-4.73,-4.73,0,*54
1495753217.97,47390,13.81,73836.0,-3.71,-4.73,-4.73,0,*5C
1495753219.24,47391,13.81,73832.5,-3.73,-4.81,-4.77,0,*56
1495753220.51,47392,13.88,73832.0,-3.73,-4.81,-4.77,0,*55
1495753221.78,47393,13.81,73832.0,-3.73,-4.77,-4.69,0,*52
1495753223.05,47394,13.88,73834.3,-3.73,-4.81,-4.77,0,*53
1495753224.32,47395,13.81,73830.3,-3.73,-4.81,-4.81,0,*5B
1495753225.59,47396,13.81,73828.8,-3.71,-4.77,-4.77,0,*5A
1495753226.85,47397,13.81,73830.5,-3.71,-4.77,-4.73,0,*5F
1495753228.09,47398,13.88,73830.8,-3.71,-4.73,-4.65,0,*53
1495753229.35,47399,13.81,73828.0,-3.71,-4.73,-4.77,0,*51
1495753230.56,47400,13.88,73832.0,-3.69,-4.61,-4.61,0,*5B
1495753231.78,47401,13.88,73832.8,-3.71,-4.53,-4.61,0,*52
1495753233.0,47402,13.81,73830.5,-3.71,-4.53,-4.53,0,*50
1495753234.21,47403,13.81,73830.5,-3.71,-4.53,-4.61,0,*50
1495753235.44,47404,13.81,73828.3,-3.71,-4.53,-4.53,0,*56
1495753236.65,47405,13.81,73828.5,-3.71,-4.53,-4.61,0,*56
1495753237.88,47406,13.81,73828.8,-3.71,-4.61,-4.65,0,*50
1495753239.14,47407,13.88,73830.8,-3.71,-4.77,-4.85,0,*58
1495753240.41,47408,13.81,73828.3,-3.71,-4.73,-4.73,0,*5A
1495753241.63,47409,13.81,73828.3,-3.71,-4.65,-4.65,0,*5B
1495753242.85,47410,13.81,73830.3,-3.71,-4.65,-4.65,0,*53
1495753244.08,47411,13.81,73828.0,-3.71,-4.65,-4.65,0,*52
1495753245.3,47412,13.81,73828.3,-3.71,-4.65,-4.65,0,*51
1495753246.56,47413,13.81,73826.5,-3.73,-4.69,-4.77,0,*5D
1495753247.81,47414,13.81,73830.3,-3.71,-4.73,-4.65,0,*50
1495753249.03,47415,13.88,73828.0,-3.71,-4.65,-4.65,0,*56
1495753250.23,47416,13.81,73828.3,-3.69,-4.65,-4.65,0,*5C
1495753251.46,47417,13.88,73832.3,-3.71,-4.65,-4.65,0,*54
1495753252.68,47418,13.88,73832.8,-3.71,-4.61,-4.61,0,*5B
1495753253.9,47419,13.81,73828.0,-3.71,-4.65,-4.61,0,*5E
1495753255.12,47420,13.81,73830.5,-3.71,-4.65,-4.65,0,*50
1495753256.33,47421,13.81,73828.0,-3.69,-4.61,-4.65,0,*5C
1495753257.55,47422,13.81,73828.0,-3.71,-4.61,-4.65,0,*56
1495753258.75,47423,13.88,73828.5,-3.69,-4.61,-4.61,0,*5A
1495753259.99,47424,13.81,73828.3,-3.71,-4.65,-4.73,0,*53
1495753261.25,47425,13.81,73830.3,-3.71,-4.77,-4.77,0,*55
1495753262.52,47426,13.81,73828.0,-3.71,-4.85,-4.85,0,*56
1495753263.76,47427,13.81,73830.3,-3.71,-4.65,-4.73,0,*50
1495753265.03,47428,13.81,73828.0,-3.71,-4.73,-4.77,0,*5C
1495753266.29,47429,13.81,73828.0,-3.71,-4.85,-4.77,0,*54
1495753267.55,47430,13.81,73826.8,-3.71,-4.77,-4.77,0,*51
1495753268.77,47431,13.81,73828.3,-3.71,-4.61,-4.65,0,*54
1495753269.98,47432,13.81,73830.0,-3.69,-4.65,-4.61,0,*5E
1495753271.2,47433,13.81,73828.8,-3.71,-4.65,-4.65,0,*52
1495753272.42,47434,13.81,73832.3,-3.71,-4.65,-4.53,0,*50
1495753273.64,47435,13.88,73832.3,-3.71,-4.53,-4.53,0,*54
1495753274.84,47436,13.81,73830.5,-3.69,-4.53,-4.53,0,*5E
1495753276.06,47437,13.81,73828.0,-3.71,-4.61,-4.53,0,*57
1495753277.26,47438,13.81,73832.3,-3.69,-4.53,-4.61,0,*51
1495753278.46,47439,13.81,73830.3,-3.69,-4.61,-4.61,0,*51
1495753279.68,47440,13.81,73830.3,-3.71,-4.53,-4.53,0,*56
1495753280.9,47441,13.81,73828.3,-3.71,-4.53,-4.61,0,*56
1495753282.1,47442,13.81,73830.0,-3.69,-4.61,-4.53,0,*5C
1495753283.32,47443,13.81,73826.5,-3.71,-4.53,-4.53,0,*55
1495753284.54,47444,13.81,73832.3,-3.71,-4.53,-4.53,0,*52
1495753285.74,47445,13.81,73828.0,-3.69,-4.53,-4.53,0,*5A
1495753286.94,47446,13.81,73830.3,-3.69,-4.53,-4.53,0,*59
1495753288.16,47447,13.81,73826.3,-3.71,-4.53,-4.53,0,*51
1495753289.36,47448,13.81,73826.5,-3.69,-4.53,-4.49,0,*5C
1495753290.55,47449,13.81,73828.0,-3.69,-4.49,-4.49,0,*56
1495753291.75,47450,13.81,73830.8,-3.69,-4.37,-4.37,0,*5E
1495753292.96,47451,13.81,73830.8,-3.69,-4.33,-4.37,0,*5B
1495753294.17,47452,13.81,73830.3,-3.69,-4.21,-4.25,0,*58
1495753295.38,47453,13.81,73828.3,-3.69,-4.21,-4.21,0,*5D
1495753296.62,47454,13.81,73828.0,-3.67,-4.21,-4.21,0,*54
1495753297.84,47455,13.81,73830.3,-3.67,-4.17,-4.17,0,*55
1495753299.08,47456,13.81,73828.3,-3.67,-4.21,-4.21,0,*56
1495753300.31,47457,13.88,73830.5,-3.67,-4.21,-4.29,0,*5F
1495753301.52,47458,13.88,73834.0,-3.65,-4.17,-4.29,0,*57
1495753302.72,47459,13.81,73830.0,-3.65,-4.29,-4.21,0,*53
1495753303.94,47460,13.81,73830.0,-3.67,-4.17,-4.17,0,*53
1495753305.18,47461,13.81,73828.8,-3.67,-4.21,-4.21,0,*52
1495753306.38,47462,13.81,73824.5,-3.65,-4.17,-4.17,0,*53
1495753307.58,47463,13.81,73826.0,-3.61,-4.13,-4.13,0,*56
1495753308.8,47464,13.81,73826.3,-3.59,-4.09,-4.13,0,*51
1495753310.01,47465,13.81,73826.8,-3.61,-4.05,-4.13,0,*57
1495753311.26,47466,13.81,73824.3,-3.59,-4.01,-4.05,0,*5C
1495753312.54,47467,13.81,73822.3,-3.59,-4.01,-4.01,0,*59
1495753313.76,47468,13.81,73820.3,-3.59,-4.09,-4.05,0,*5A
1495753314.99,47469,13.81,73824.0,-3.59,-3.95,-3.95,0,*57
1495753316.21,47470,13.81,73820.0,-3.59,-3.87,-3.87,0,*5F
1495753317.44,47471,13.81,73822.8,-3.57,-4.01,-3.95,0,*5A
1495753318.7,47472,13.81,73818.3,-3.57,-4.01,-4.01,0,*53
1495753319.95,47473,13.81,73814.3,-3.57,-4.01,-4.01,0,*52
1495753321.15,47474,13.81,73814.5,-3.57,-4.13,-4.13,0,*55
1495753322.37,47475,13.81,73818.5,-3.55,-4.17,-4.09,0,*59
1495753323.59,47476,13.81,73816.5,-3.55,-4.05,-4.09,0,*59
1495753324.81,47477,13.81,73818.8,-3.55,-4.05,-4.09,0,*58
1495753326.03,47478,13.81,73822.5,-3.55,-4.09,-4.05,0,*57
1495753327.26,47479,13.88,73830.3,-3.55,-3.95,-3.91,0,*5E
1495753328.48,47480,13.88,73830.3,-3.55,-3.79,-3.79,0,*5C
1495753329.71,47481,13.81,73820.3,-3.55,-3.83,-3.79,0,*58
1495753330.94,47482,13.81,73820.3,-3.55,-3.91,-3.91,0,*5E
1495753332.15,47483,13.81,73820.8,-3.53,-3.91,-3.95,0,*5D
1495753333.35,47484,13.81,73820.5,-3.53,-3.95,-3.95,0,*5E
1495753334.59,47485,13.81,73820.0,-3.51,-3.91,-3.91,0,*5D
1495753335.79,47486,13.81,73818.0,-3.53,-3.95,-3.95,0,*5C
1495753336.99,47487,13.81,73814.8,-3.53,-4.09,-4.09,0,*5D
1495753338.21,47488,13.81,73814.8,-3.51,-4.17,-4.25,0,*51
1495753339.44,47489,13.81,73812.0,-3.51,-4.29,-4.29,0,*51
1495753340.67,47490,13.81,73814.8,-3.51,-4.29,-4.29,0,*59
1495753341.89,47491,13.81,73812.0,-3.51,-4.29,-4.25,0,*54
1495753343.09,47492,13.81,73812.3,-3.53,-4.33,-4.33,0,*59
1495753344.28,47493,13.81,73810.8,-3.53,-4.37,-4.45,0,*5D
1495753345.47,47494,13.81,73812.8,-3.53,-4.45,-4.45,0,*5F
1495753346.67,47495,13.81,73812.0,-3.53,-4.61,-4.57,0,*5B
1495753347.89,47496,13.81,73808.8,-3.53,-4.69,-4.61,0,*55
1495753349.13,47497,13.81,73804.8,-3.53,-4.69,-4.73,0,*57
1495753350.4,47498,13.81,73818.3,-3.55,-4.73,-4.73,0,*55
1495753351.66,47499,13.81,73822.8,-3.55,-4.81,-4.73,0,*59
1495753352.9,47500,13.81,73824.5,-3.55,-4.69,-4.61,0,*5D
1495753354.13,47501,13.81,73824.0,-3.55,-4.61,-4.57,0,*51
1495753355.34,47502,13.81,73826.8,-3.55,-4.37,-4.49,0,*5E
1495753356.55,47503,13.81,73828.3,-3.55,-4.45,-4.45,0,*56
1495753357.76,47504,13.81,73830.0,-3.55,-4.45,-4.45,0,*51
1495753358.98,47505,13.88,73832.5,-3.55,-4.49,-4.57,0,*5F
1495753360.18,47506,13.81,73830.8,-3.57,-4.53,-4.53,0,*51
1495753361.4,47507,13.81,73826.0,-3.55,-4.57,-4.57,0,*52
1495753362.6,47508,13.81,73830.3,-3.57,-4.65,-4.61,0,*5B
1495753363.85,47509,13.81,73828.5,-3.57,-4.73,-4.73,0,*5E
1495753365.07,47510,13.81,73830.8,-3.57,-4.73,-4.65,0,*51
1495753366.3,47511,13.81,73830.5,-3.57,-4.65,-4.73,0,*50
1495753367.5,47512,13.81,73830.0,-3.57,-4.65,-4.65,0,*54
1495753368.72,47513,13.81,73834.8,-3.57,-4.73,-4.65,0,*52
1495753369.97,47514,13.81,73836.3,-3.59,-4.65,-4.73,0,*5B
1495753371.23,47515,13.81,73834.3,-3.59,-4.85,-4.77,0,*50
1495753372.5,47516,13.81,73834.5,-3.59,-4.77,-4.85,0,*53
1495753373.75,47517,13.81,73834.8,-3.57,-4.77,-4.85,0,*5C
1495753374.99,47518,13.81,73834.0,-3.57,-4.85,-4.77,0,*53
1495753376.23,47519,13.81,73832.0,-3.57,-4.77,-4.73,0,*5B
1495753377.5,47520,13.81,73834.0,-3.59,-4.73,-4.73,0,*5B
1495753378.77,47521,13.81,73830.8,-3.59,-4.85,-4.89,0,*56
1495753380.02,47522,13.81,73834.8,-3.61,-5.03,-5.03,0,*52
1495753381.27,47523,13.81,73830.8,-3.61,-4.93,-4.93,0,*53
1495753382.51,47524,13.81,73826.8,-3.61,-4.89,-4.93,0,*5F
1495753383.76,47525,13.81,73834.8,-3.61,-4.89,-4.93,0,*5E
1495753385.01,47526,13.81,73826.8,-3.61,-4.81,-4.81,0,*56
1495753386.25,47527,13.81,73832.8,-3.61,-4.81,-4.77,0,*5E
1495753387.49,47528,13.81,73828.3,-3.61,-4.77,-4.81,0,*51
1495753388.74,47529,13.81,73830.8,-3.65,-4.85,-4.93,0,*5A
1495753389.98,47530,13.81,73830.8,-3.65,-4.85,-4.85,0,*55
1495753391.23,47531,13.81,73832.8,-3.65,-4.73,-4.81,0,*59
1495753392.5,47532,13.81,73830.8,-3.67,-4.73,-4.73,0,*55
1495753393.75,47533,13.81,73832.5,-3.65,-4.81,-4.81,0,*56
1495753395.02,47534,13.81,73832.3,-3.67,-4.93,-4.93,0,*53
1495753396.29,47535,13.81,73834.5,-3.67,-4.85,-4.93,0,*55
1495753397.53,47536,13.81,73834.8,-3.65,-4.85,-4.93,0,*54
1495753398.77,47537,13.81,73834.5,-3.65,-4.85,-4.85,0,*52
1495753400.02,47538,13.81,73830.3,-3.65,-4.73,-4.73,0,*5D
1495753401.29,47539,13.81,73832.8,-3.67,-4.73,-4.69,0,*55
1495753402.54,47540,13.81,73834.3,-3.65,-4.73,-4.69,0,*59
1495753403.79,47541,13.81,73830.8,-3.65,-4.69,-4.69,0,*53
1495753405.06,47542,13.81,73830.0,-3.67,-4.73,-4.81,0,*5F
1495753406.33,47543,13.81,73828.8,-3.67,-4.69,-4.81,0,*55
1495753407.58,47544,13.81,73830.5,-3.65,-4.73,-4.81,0,*5B
1495753408.85,47545,13.81,73828.3,-3.67,-4.73,-4.73,0,*55
1495753410.12,47546,13.81,73832.0,-3.67,-4.81,-4.81,0,*56
1495753411.37,47547,13.81,73834.8,-3.65,-4.81,-4.85,0,*51
1495753412.64,47548,13.81,73832.5,-3.67,-4.93,-4.93,0,*58
1495753413.91,47549,13.81,73834.0,-3.67,-4.85,-4.85,0,*59
1495753415.18,47550,13.81,73832.0,-3.67,-4.81,-4.81,0,*51
1495753416.46,47551,13.81,73834.5,-3.67,-4.81,-4.85,0,*54
1495753417.73,47552,13.81,73834.0,-3.67,-4.81,-4.81,0,*53
1495753419.0,47553,13.81,73828.0,-3.67,-4.85,-4.93,0,*55
1495753420.24,47554,13.81,73830.5,-3.67,-4.99,-4.93,0,*5F
1495753421.44,47555,13.81,73830.5,-3.69,-4.99,-4.99,0,*5A
1495753422.7,47556,13.81,73830.8,-3.67,-4.93,-4.93,0,*57
1495753423.93,47557,13.81,73828.5,-3.69,-5.03,-4.99,0,*5A
1495753425.18,47558,13.81,73830.8,-3.69,-4.89,-4.89,0,*57
1495753426.43,47559,13.81,73830.5,-3.69,-4.89,-4.89,0,*56
1495753427.67,47560,13.81,73830.0,-3.69,-4.77,-4.77,0,*5C
1495753428.92,47561,13.88,73838.0,-3.69,-4.85,-4.85,0,*5D
1495753430.16,47562,13.81,73834.3,-3.71,-4.85,-4.99,0,*5A
1495753431.38,47563,13.81,73834.0,-3.69,-4.89,-4.99,0,*5E
1495753432.59,47564,13.81,73836.8,-3.69,-4.85,-4.99,0,*55
1495753433.81,47565,13.81,73832.8,-3.69,-4.99,-4.89,0,*58
1495753435.07,47566,13.81,73834.3,-3.69,-5.03,-5.11,0,*59
1495753436.35,47567,13.81,73832.0,-3.71,-5.03,-5.03,0,*52
1495753437.63,47568,13.81,73832.3,-3.71,-5.03,-5.03,0,*5D
1495753438.9,47569,13.81,73834.8,-3.71,-4.89,-4.89,0,*5C
1495753440.17,47570,13.81,73832.5,-3.71,-4.89,-4.89,0,*54
1495753441.39,47571,13.81,73834.8,-3.71,-4.99,-4.99,0,*55
1495753442.6,47572,13.81,73832.5,-3.71,-4.99,-4.99,0,*56
1495753443.87,47573,13.81,73834.5,-3.73,-4.93,-5.03,0,*5D
1495753445.12,47574,13.81,73832.3,-3.71,-4.99,-5.03,0,*52
1495753446.37,47575,13.81,73832.5,-3.71,-4.99,-5.03,0,*53
1495753447.59,47576,13.81,73830.8,-3.69,-4.89,-4.99,0,*5A
1495753448.83,47577,13.81,73832.8,-3.71,-4.89,-4.99,0,*52
1495753450.1,47578,13.81,73832.3,-3.73,-4.93,-4.93,0,*5E
1495753451.36,47579,13.81,73832.0,-3.73,-4.93,-4.93,0,*5F
1495753452.61,47580,13.81,73832.0,-3.75,-4.89,-4.89,0,*5F
1495753453.89,47581,13.81,73832.8,-3.73,-4.81,-4.89,0,*50
1495753455.16,47582,13.81,73832.0,-3.73,-4.77,-4.69,0,*54
1495753456.42,47583,13.81,73832.8,-3.73,-4.69,-4.77,0,*55
1495753457.69,47584,13.81,73830.5,-3.73,-4.69,-4.69,0,*5D
1495753458.89,47585,13.81,73830.5,-3.75,-4.57,-4.65,0,*5B
1495753460.12,47586,13.81,73832.0,-3.73,-4.65,-4.65,0,*5F
1495753461.34,47587,13.81,73830.0,-3.71,-4.53,-4.61,0,*5D
1495753462.56,47588,13.81,73828.5,-3.71,-4.53,-4.61,0,*52
1495753463.78,47589,13.81,73834.8,-3.71,-4.61,-4.61,0,*52
1495753465.05,47590,13.81,73834.0,-3.71,-4.73,-4.73,0,*5A
1495753466.32,47591,13.81,73832.3,-3.73,-4.77,-4.77,0,*59
1495753467.58,47592,13.81,73832.0,-3.73,-4.77,-4.77,0,*5A
1495753468.85,47593,13.81,73832.5,-3.73,-4.77,-4.77,0,*5B
1495753470.12,47594,13.81,73828.3,-3.73,-4.69,-4.77,0,*53
1495753471.38,47595,13.81,73832.8,-3.71,-4.77,-4.73,0,*5B
1495753472.64,47596,13.81,73832.0,-3.71,-4.77,-4.73,0,*58
1495753473.91,47597,13.81,73832.3,-3.71,-4.77,-4.85,0,*50
1495753475.17,47598,13.81,73832.3,-3.71,-4.85,-4.85,0,*52
1495753476.43,47599,13.81,73834.0,-3.71,-4.77,-4.77,0,*53
1495753477.7,47600,13.81,73828.5,-3.71,-4.73,-4.73,0,*50
1495753478.96,47601,13.81,73830.0,-3.71,-4.73,-4.73,0,*51
1495753480.21,47602,13.81,73830.8,-3.71,-4.73,-4.65,0,*55
1495753481.43,47603,13.81,73830.5,-3.71,-4.61,-4.61,0,*53
1495753482.65,47604,13.81,73830.5,-3.71,-4.53,-4.53,0,*54
1495753483.87,47605,13.81,73830.5,-3.71,-4.53,-4.53,0,*55
1495753485.07,47606,13.81,73830.0,-3.69,-4.53,-4.61,0,*5E
1495753486.28,47607,13.81,73830.3,-3.71,-4.53,-4.49,0,*5C
1495753487.51,47608,13.81,73830.8,-3.71,-4.61,-4.61,0,*58
1495753488.73,47609,13.81,73828.3,-3.71,-4.61,-4.53,0,*58
1495753489.93,47610,13.81,73832.5,-3.69,-4.53,-4.53,0,*58
1495753491.15,47611,13.81,73832.3,-3.71,-4.53,-4.53,0,*50
1495753492.37,47612,13.81,73828.3,-3.71,-4.61,-4.53,0,*52
1495753493.57,47613,13.81,73830.8,-3.69,-4.61,-4.53,0,*5A
1495753494.79,47614,13.81,73826.8,-3.71,-4.61,-4.61,0,*55
1495753496.01,47615,13.81,73826.5,-3.69,-4.77,-4.65,0,*5E
1495753497.23,47616,13.81,73830.8,-3.69,-4.77,-4.65,0,*5D
1495753498.46,47617,13.81,73832.8,-3.71,-4.65,-4.65,0,*56
1495753499.68,47618,13.81,73832.0,-3.71,-4.61,-4.65,0,*5D
1495753500.9,47619,13.81,73832.3,-3.69,-4.61,-4.73,0,*52
1495753502.14,47620,13.81,73830.0,-3.69,-4.77,-4.77,0,*5B
1495753503.38,47621,13.81,73830.5,-3.69,-4.77,-4.77,0,*5A
1495753504.62,47622,13.81,73828.8,-3.71,-4.85,-4.99,0,*5D
1495753505.83,47623,13.81,73834.8,-3.71,-4.99,-4.99,0,*51
1495753507.04,47624,13.81,73828.0,-3.71,-4.99,-4.99,0,*56
1495753508.26,47625,13.81,73830.3,-3.71,-4.99,-4.99,0,*57
1495753509.52,47626,13.81,73834.8,-3.71,-4.85,-4.89,0,*58
1495753510.8,47627,13.81,73832.0,-3.73,-4.89,-4.93,0,*5C
1495753512.06,47628,13.81,73834.8,-3.71,-4.77,-4.77,0,*5A
1495753513.32,47629,13.81,73828.8,-3.71,-4.77,-4.85,0,*56
1495753514.59,47630,13.81,73828.3,-3.71,-4.89,-4.89,0,*53
1495753515.86,47631,13.81,73830.3,-3.73,-4.93,-4.93,0,*50
1495753517.13,47632,13.81,73830.3,-3.73,-4.93,-4.93,0,*53
1495753518.4,47633,13.81,73830.5,-3.73,-4.81,-4.81,0,*52
1495753519.64,47634,13.81,73826.5,-3.75,-4.69,-4.69,0,*53
1495753520.91,47635,13.81,73832.0,-3.73,-4.77,-4.69,0,*5B
1495753522.18,47636,13.81,73830.0,-3.73,-4.77,-4.77,0,*57
1495753523.45,47637,13.81,73830.0,-3.73,-4.77,-4.81,0,*5F
1495753524.73,47638,13.81,73828.8,-3.73,-4.89,-4.81,0,*51
1495753525.97,47639,13.81,73828.3,-3.75,-4.81,-4.89,0,*56
1495753527.24,47640,13.81,73826.5,-3.73,-4.81,-4.89,0,*5E
1495753528.51,47641,13.81,73830.5,-3.71,-4.77,-4.77,0,*55
1495753529.78,47642,13.81,73828.3,-3.73,-4.69,-4.69,0,*54
1495753531.01,47643,13.81,73830.3,-3.75,-4.77,-4.77,0,*53
1495753532.28,47644,13.81,73826.8,-3.73,-4.69,-4.77,0,*5D
1495753533.56,47645,13.81,73828.5,-3.73,-4.89,-4.89,0,*53
1495753534.83,47646,13.81,73830.0,-3.73,-4.69,-4.81,0,*56
1495753536.08,47647,13.81,73830.3,-3.73,-4.65,-4.69,0,*5D
1495753537.31,47648,13.81,73826.0,-3.73,-4.65,-4.57,0,*5F
1495753538.54,47649,13.81,73826.3,-3.73,-4.57,-4.65,0,*5E
1495753539.77,47650,13.81,73826.3,-3.73,-4.57,-4.57,0,*57
1495753541.0,47651,13.81,73826.0,-3.73,-4.57,-4.65,0,*57
1495753542.23,47652,13.81,73826.3,-3.73,-4.65,-4.65,0,*55
1495753543.5,47653,13.81,73828.5,-3.73,-4.69,-4.69,0,*54
1495753544.7,47654,13.81,73826.0,-3.75,-4.65,-4.65,0,*55
1495753545.93,47655,13.81,73830.8,-3.73,-4.57,-4.57,0,*52
1495753547.17,47656,13.81,73828.3,-3.73,-4.57,-4.57,0,*51
1495753548.39,47657,13.81,73824.0,-3.71,-4.53,-4.53,0,*52
1495753549.62,47658,13.81,73828.0,-3.73,-4.57,-4.57,0,*5F
1495753550.85,47659,13.81,73828.5,-3.73,-4.57,-4.57,0,*5E
1495753552.05,47660,13.81,73824.8,-3.69,-4.53,-4.61,0,*5E
1495753553.25,47661,13.81,73824.3,-3.69,-4.61,-4.61,0,*5E
1495753554.47,47662,13.81,73826.8,-3.71,-4.53,-4.53,0,*54
1495753555.68,47663,13.81,73828.3,-3.71,-4.45,-4.45,0,*55
1495753556.9,47664,13.81,73824.5,-3.71,-4.33,-4.33,0,*52
1495753558.12,47665,13.81,73826.5,-3.71,-4.37,-4.37,0,*53
1495753559.34,47666,13.81,73828.5,-3.71,-4.25,-4.33,0,*57
1495753560.55,47667,13.81,73828.0,-3.69,-4.25,-4.33,0,*5F
1495753561.74,47668,13.81,73828.0,-3.69,-4.37,-4.45,0,*52
1495753562.94,47669,13.81,73828.0,-3.69,-4.37,-4.37,0,*56
1495753564.14,47670,13.81,73826.5,-3.69,-4.33,-4.37,0,*5A
1495753565.37,47671,13.81,73826.8,-3.67,-4.33,-4.41,0,*54
1495753566.6,47672,13.81,73826.3,-3.67,-4.33,-4.41,0,*57
1495753567.83,47673,13.81,73824.8,-3.67,-4.33,-4.33,0,*53
1495753569.06,47674,13.81,73828.0,-3.67,-4.41,-4.29,0,*5A
1495753570.29,47675,13.81,73830.3,-3.67,-4.33,-4.29,0,*5E
1495753571.52,47676,13.81,73824.3,-3.67,-4.29,-4.29,0,*56
1495753572.75,47677,13.81,73826.3,-3.67,-4.33,-4.29,0,*5C
1495753573.98,47678,13.81,73822.3,-3.67,-4.33,-4.29,0,*53
1495753575.19,47679,13.81,73824.8,-3.65,-4.17,-4.21,0,*5E
1495753576.4,47680,13.81,73824.3,-3.65,-4.21,-4.21,0,*5D
1495753577.61,47681,13.81,73822.8,-3.65,-4.17,-4.21,0,*59
1495753578.81,47682,13.81,73816.3,-3.65,-4.09,-4.09,0,*5F
1495753580.0,47683,13.81,73820.3,-3.61,-4.09,-4.17,0,*55
1495753581.2,47684,13.81,73820.8,-3.61,-4.05,-4.13,0,*5A
1495753582.4,47685,13.81,73822.0,-3.61,-4.13,-4.05,0,*5B
1495753583.66,47686,13.81,73822.3,-3.61,-4.01,-4.01,0,*5F
1495753584.86,47687,13.81,73822.5,-3.61,-4.05,-3.91,0,*54
1495753586.11,47688,13.81,73822.5,-3.59,-4.01,-4.09,0,*52
1495753587.37,47689,13.81,73820.0,-3.61,-4.01,-4.01,0,*50
1495753588.6,47690,13.81,73820.5,-3.59,-3.95,-4.09,0,*51
1495753589.82,47691,13.81,73820.0,-3.59,-4.13,-4.13,0,*52
1495753591.06,47692,13.81,73820.5,-3.59,-4.21,-4.21,0,*51
1495753592.28,47693,13.81,73822.5,-3.59,-4.33,-4.25,0,*57
1495753593.52,47694,13.81,73820.3,-3.59,-4.21,-4.21,0,*57
1495753594.75,47695,13.81,73818.8,-3.59,-4.25,-4.21,0,*52
1495753595.96,47696,13.81,73820.3,-3.57,-4.21,-4.25,0,*5F
1495753597.17,47697,13.81,73822.8,-3.57,-4.33,-4.25,0,*5D
1495753598.38,47698,13.81,73828.3,-3.57,-4.21,-4.13,0,*54
1495753599.6,47699,13.81,73824.8,-3.55,-4.17,-4.21,0,*53
1495753600.81,47700,13.81,73824.3,-3.57,-4.33,-4.25,0,*52
1495753602.01,47701,13.81,73828.3,-3.57,-4.25,-4.37,0,*57
1495753603.22,47702,13.81,73826.0,-3.57,-4.33,-4.33,0,*57
1495753604.42,47703,13.81,73826.0,-3.57,-4.33,-4.33,0,*56
1495753605.62,47704,13.81,73824.5,-3.57,-4.33,-4.37,0,*55
1495753606.82,47705,13.81,73824.0,-3.57,-4.37,-4.33,0,*54
1495753608.02,47706,13.81,73828.0,-3.57,-4.37,-4.37,0,*53
1495753609.22,47707,13.81,73820.0,-3.57,-4.37,-4.37,0,*52
1495753610.41,47708,13.81,73820.0,-3.57,-4.37,-4.37,0,*5D
1495753611.61,47709,13.81,73822.3,-3.57,-4.53,-4.49,0,*57
1495753612.86,47710,13.81,73820.5,-3.55,-4.61,-4.69,0,*5E
1495753614.1,47711,13.81,73820.3,-3.57,-4.73,-4.73,0,*55
1495753615.34,47712,13.81,73816.0,-3.57,-4.73,-4.77,0,*52
1495753616.59,47713,13.81,73816.8,-3.59,-4.65,-4.73,0,*5E
1495753617.84,47714,13.81,73816.8,-3.59,-4.65,-4.77,0,*5D
1495753619.08,47715,13.81,73820.8,-3.61,-4.77,-4.77,0,*54
1495753620.35,47716,13.81,73816.0,-3.59,-4.73,-4.73,0,*5C
1495753621.62,47717,13.81,73818.5,-3.59,-4.85,-4.85,0,*5D
1495753622.86,47718,13.81,73818.8,-3.61,-4.89,-4.93,0,*52
1495753624.14,47719,13.81,73818.3,-3.59,-4.89,-4.89,0,*53
1495753625.39,47720,13.81,73822.8,-3.61,-5.07,-5.15,0,*51
1495753626.65,47721,13.81,73820.0,-3.61,-5.07,-5.07,0,*53
1495753627.9,47722,13.81,73820.5,-3.65,-4.85,-4.85,0,*54
1495753629.15,47723,13.81,73822.0,-3.65,-4.73,-4.69,0,*5E
1495753630.37,47724,13.81,73824.5,-3.65,-4.61,-4.73,0,*51
1495753631.6,47725,13.81,73828.8,-3.65,-4.61,-4.69,0,*5B
1495753632.8,47726,13.81,73828.5,-3.65,-4.61,-4.61,0,*50
1495753634.0,47727,13.81,73826.5,-3.65,-4.61,-4.61,0,*51
1495753635.2,47728,13.81,73826.8,-3.65,-4.61,-4.61,0,*5E
1495753636.4,47729,13.81,73830.0,-3.65,-4.49,-4.57,0,*50
1495753637.65,47730,13.81,73830.8,-3.65,-4.69,-4.69,0,*57
1495753638.89,47731,13.81,73832.0,-3.65,-4.81,-4.73,0,*5B
1495753640.17,47732,13.81,73830.0,-3.67,-4.81,-4.81,0,*57
1495753641.41,47733,13.81,73830.8,-3.65,-4.69,-4.69,0,*54
1495753642.64,47734,13.81,73832.0,-3.65,-4.61,-4.69,0,*5B
1495753643.91,47735,13.81,73828.3,-3.67,-4.73,-4.81,0,*5D
1495753645.16,47736,13.81,73830.3,-3.65,-4.81,-4.73,0,*5C
1495753646.4,47737,13.81,73826.8,-3.65,-4.73,-4.73,0,*50
1495753647.67,47738,13.81,73822.5,-3.67,-4.73,-4.73,0,*5D
1495753648.92,47739,13.81,73824.3,-3.65,-4.73,-4.73,0,*5E
1495753650.17,47740,13.81,73826.3,-3.65,-4.73,-4.81,0,*5D
1495753651.44,47741,13.81,73824.8,-3.67,-4.81,-4.73,0,*5E
1495753652.71,47742,13.81,73820.8,-3.67,-4.93,-4.85,0,*57
1495753653.95,47743,13.81,73822.3,-3.67,-4.93,-4.99,0,*5B
1495753655.22,47744,13.81,73822.3,-3.67,-4.85,-4.85,0,*56
1495753656.5,47745,13.81,73822.8,-3.67,-4.85,-4.85,0,*57
1495753657.74,47746,13.81,73824.0,-3.67,-4.99,-4.93,0,*5E
1495753658.99,47747,13.81,73830.0,-3.67,-4.99,-4.93,0,*5F
1495753660.19,47748,13.81,73826.3,-3.69,-4.61,-4.65,0,*50
1495753661.38,47749,13.81,73824.3,-3.69,-4.45,-4.49,0,*59
1495753662.57,47750,13.81,73826.8,-3.69,-4.45,-4.49,0,*51
1495753663.8,47751,13.81,73826.0,-3.67,-4.49,-4.57,0,*5D
1495753665.02,47752,13.81,73826.8,-3.67,-4.49,-4.57,0,*5E
1495753666.25,47753,13.81,73828.5,-3.67,-4.49,-4.57,0,*5F
1495753667.47,47754,13.81,73828.0,-3.67,-4.49,-4.49,0,*57
1495753668.68,47755,13.81,73828.3,-3.65,-4.57,-4.61,0,*51
1495753669.95,47756,13.81,73824.8,-3.67,-4.69,-4.69,0,*55
1495753671.22,47757,13.81,73828.0,-3.67,-4.81,-4.69,0,*52
1495753672.49,47758,13.81,73830.0,-3.67,-4.81,-4.81,0,*5B
1495753673.76,47759,13.81,73830.5,-3.67,-4.73,-4.73,0,*5A
1495753675.01,47760,13.81,73834.5,-3.69,-4.73,-4.73,0,*5E
1495753676.25,47761,13.81,73834.8,-3.69,-4.73,-4.73,0,*5F
1495753677.5,47762,13.75,73830.5,-3.69,-4.73,-4.73,0,*5C
1495753678.72,47763,13.81,73834.8,-3.69,-4.65,-4.73,0,*5A
1495753679.97,47764,13.81,73834.8,-3.69,-4.77,-4.73,0,*5E
1495753681.21,47765,13.75,73832.0,-3.69,-4.73,-4.77,0,*5F
1495753682.45,47766,13.81,73838.0,-3.69,-4.73,-4.77,0,*5C
1495753683.71,47767,13.81,73832.8,-3.71,-4.85,-4.77,0,*5D
1495753684.97,47768,13.81,73836.0,-3.69,-4.89,-4.85,0,*5A
1495753686.21,47769,13.75,73834.5,-3.71,-4.99,-4.89,0,*5F
1495753687.4,47770,13.81,73840.5,-3.69,-4.99,-4.99,0,*5F
1495753688.64,47771,13.81,73836.5,-3.71,-4.99,-5.11,0,*56
1495753689.92,47772,13.81,73838.5,-3.71,-5.03,-5.03,0,*54
1495753691.2,47773,13.81,73838.3,-3.71,-5.03,-5.11,0,*56
1495753692.48,47774,13.75,73834.3,-3.71,-5.03,-5.03,0,*52
1495753693.74,47775,13.81,73840.8,-3.69,-5.03,-5.03,0,*5A
1495753695.01,47776,13.75,73838.0,-3.71,-5.11,-5.11,0,*50
1495753696.28,47777,13.81,73836.8,-3.71,-5.11,-5.15,0,*55
1495753697.56,47778,13.81,73838.3,-3.71,-5.03,-5.03,0,*5E
1495753698.84,47779,13.75,73836.3,-3.73,-5.07,-5.15,0,*5E
1495753700.13,47780,13.81,73838.3,-3.73,-5.07,-5.07,0,*5B
1495753701.41,47781,13.81,73838.5,-3.73,-5.15,-5.07,0,*59
1495753702.67,47782,13.81,73838.5,-3.75,-5.07,-5.07,0,*5F
1495753703.95,47783,13.81,73838.3,-3.73,-5.15,-5.07,0,*5B
1495753705.24,47784,13.81,73836.5,-3.73,-5.07,-5.15,0,*5C
1495753706.49,47785,13.81,73836.3,-3.75,-5.19,-5.27,0,*55
1495753707.74,47786,13.75,73832.5,-3.75,-5.27,-5.27,0,*5B
1495753709.02,47787,13.75,73834.0,-3.73,-5.19,-5.27,0,*51
1495753710.28,47788,13.75,73832.8,-3.75,-5.27,-5.27,0,*55
1495753711.53,47789,13.81,73836.8,-3.75,-5.27,-5.27,0,*54